Forecast for Flamstone Farm, Bishopstone - last updated: Mon 02 Aug 17:00
Today     DescriptionTempPrecip.Rain risk%Pressure Wind AvGustHumidityVisibility
16:00 BSTCloudy17.2°C - 14 % 1014 mb9 mph79 %14.1 mls
19:00 BSTHeavy rain shower (day)16.8°C1.4 mm48 % 1013 mb8 mph73 %10.1 mls
22:00 BSTCloudy15.2°C - 6 % 1014 mb8 mph78 %15.1 mls
Tue 03 Aug     DescriptionTempPrecip.Rain risk%Pressure Wind AvGustHumidityVisibility
01:00 BSTCloudy14.4°C - 5 % 1014 mb4 mph89 %10.1 mls
04:00 BSTPartly cloudy (night)12.3°C - 1 % 1013 mb5 mph96 %7.5 mls
07:00 BSTCloudy13.0°C - 5 % 1013 mb8 mph94 %5.2 mls
10:00 BSTPartly cloudy (day)16.0°C - 2 % 1013 mb8 mph76 %12.5 mls
13:00 BSTCloudy18.4°C - 10 % 1012 mb8 mph61 %16.1 mls
16:00 BSTCloudy18.6°C - 13 % 1012 mb11 mph62 %11.9 mls
19:00 BSTCloudy18.4°C - 5 % 1011 mb9 mph68 %19.2 mls
22:00 BSTPartly cloudy (night)14.6°C - 1 % 1013 mb11 mph85 %14.2 mls
Wed 04 Aug     DescriptionTempPrecip.Rain risk%Pressure Wind AvGustHumidityVisibility
01:00 BSTPartly cloudy (night)14.4°C - 0 % 1013 mb9 mph93 %10.2 mls
04:00 BSTPartly cloudy (night)11.8°C - 1 % 1012 mb8 mph95 %8.3 mls
07:00 BSTPartly cloudy (day)12.5°C - 2 % 1013 mb7 mph94 %4.2 mls
10:00 BSTCloudy16.8°C - 5 % 1013 mb10 mph75 %15.0 mls
13:00 BSTLight rain shower (day)18.9°C - 39 % 1013 mb13 mph62 %8.8 mls
16:00 BSTCloudy19.9°C - 20 % 1012 mb14 mph60 %15.1 mls
19:00 BSTSunny day18.5°C - 4 % 1012 mb14 mph70 %18.4 mls
22:00 BSTPartly cloudy (night)14.5°C - 2 % 1012 mb9 mph90 %14.6 mls
Thu 05 Aug     DescriptionTempPrecip.Rain risk%Pressure Wind AvGustHumidityVisibility
01:00 BSTPartly cloudy (night)15.1°C - 3 % 1011 mb8 mph95 %10.6 mls
04:00 BSTCloudy13.4°C - 8 % 1009 mb9 mph96 %6.2 mls
07:00 BSTCloudy14.0°C - 11 % 1008 mb12 mph95 %7.7 mls
10:00 BSTLight rain shower (day)15.9°C0.7 mm49 % 1007 mb20 mph87 %8.8 mls
13:00 BSTLight rain16.9°C1.2 mm58 % 1005 mb27 mph82 %6.4 mls
16:00 BSTHeavy rain16.9°C3.0 mm82 % 1003 mb26 mph88 %4.1 mls
19:00 BSTCloudy16.9°C - 21 % 1001 mb20 mph89 %6.7 mls
22:00 BSTLight rain shower (night)15.2°C0.5 mm30 % 1001 mb16 mph94 %7.5 mls
Fri 06 Aug     DescriptionTempPrecip.Rain risk%Pressure Wind AvGustHumidityVisibility
01:00 BSTCloudy15.4°C - 14 % 1001 mb14 mph96 %7.2 mls
04:00 BSTCloudy14.3°C - 9 % 1001 mb14 mph96 %7.8 mls
07:00 BSTPartly cloudy (day)14.7°C - 5 % 1001 mb15 mph95 %8.2 mls
10:00 BSTPartly cloudy (day)16.9°C - 7 % 1002 mb21 mph84 %8.6 mls
13:00 BSTPartly cloudy (day)19.0°C - 11 % 1003 mb25 mph70 %12.2 mls
16:00 BSTCloudy19.3°C - 15 % 1003 mb25 mph68 %12.5 mls
19:00 BSTSunny day18.1°C - 9 % 1003 mb20 mph72 %14.4 mls
22:00 BSTPartly cloudy (night)14.8°C - 4 % 1004 mb15 mph87 %13.1 mls
Sat 07 Aug     DescriptionTempPrecip.Rain risk%Pressure Wind AvGustHumidityVisibility
01:00 BSTCloudy14.6°C - 8 % 1004 mb14 mph93 %11.8 mls
04:00 BSTCloudy12.9°C - 10 % 1003 mb14 mph95 %9.4 mls
07:00 BSTCloudy13.5°C - 11 % 1003 mb14 mph94 %9.1 mls
10:00 BSTLight rain shower (day)15.8°C0.6 mm40 % 1003 mb21 mph82 %11.0 mls
13:00 BSTLight rain shower (day)17.7°C1.1 mm43 % 1004 mb24 mph73 %11.6 mls
16:00 BSTLight rain shower (day)18.0°C1.1 mm44 % 1004 mb24 mph71 %11.8 mls
19:00 BSTLight rain shower (day)17.3°C0.8 mm41 % 1005 mb20 mph75 %14.3 mls
22:00 BSTPartly cloudy (night)14.4°C - 7 % 1007 mb16 mph87 %13.5 mls
Sun 08 Aug     DescriptionTempPrecip.Rain risk%Pressure Wind AvGustHumidityVisibility
01:00 BSTClear night13.8°C - 4 % 1007 mb16 mph92 %12.2 mls
04:00 BSTClear night12.9°C - 3 % 1008 mb15 mph93 %11.1 mls
07:00 BSTPartly cloudy (day)13.1°C - 3 % 1010 mb15 mph92 %11.8 mls
10:00 BSTPartly cloudy (day)16.2°C - 11 % 1011 mb22 mph76 %14.7 mls
13:00 BSTLight rain shower (day)18.4°C - 34 % 1012 mb25 mph67 %14.8 mls
16:00 BSTLight rain shower (day)18.8°C0.5 mm32 % 1013 mb24 mph65 %15.0 mls
19:00 BSTLight rain shower (day)17.9°C - 35 % 1014 mb21 mph71 %16.2 mls
22:00 BSTPartly cloudy (night)15.0°C - 10 % 1016 mb16 mph85 %14.4 mls
Never base important decisions that could result in harm to people or property on this weather information.